CW7849 Weather Reports


time (UTC)temp
F
wind
direction
speed
knots
gust
knots
rain 1hr
in
rain 24hr
in
rain mn
in
humidity
%
barometer
mb
20260505205404 34 351 0.0 1.7 0.00 0.00 0.00 63 1012.5
20260505204903 34 352 0.0 0.9 0.00 0.00 0.00 63 1012.4
20260505204403 34 352 0.9 0.9 0.00 0.00 0.00 64 1012.5
20260505203904 34 352 0.9 1.7 0.00 0.00 0.00 62 1012.4
20260505202904 35 338 0.9 1.7 0.00 0.00 0.00 58 1012.4
20260505202403 36 338 0.9 1.7 0.00 0.00 0.00 58 1012.4
20260505201904 36 308 0.0 0.0 0.00 0.00 0.00 57 1012.4
20260505201404 36 308 0.0 0.0 0.00 0.00 0.00 55 1012.4
20260505200904 37 308 0.0 0.9 0.00 0.00 0.00 54 1012.3
20260505200404 37 308 0.9 1.7 0.00 0.00 0.00 53 1012.3
20260505195904 38 308 0.0 0.0 0.00 0.00 0.00 51 1012.2
20260505195403 39 308 0.0 0.0 0.00 0.00 0.00 48 1012.2
20260505194404 40 308 0.0 0.0 0.00 0.00 0.00 46 1012.2
20260505193903 41 308 0.0 0.0 0.00 0.00 0.00 46 1012.2
20260505193404 41 308 0.0 0.0 0.00 0.00 0.00 45 1012.1
20260505192902 41 308 0.0 0.9 0.00 0.00 0.00 44 1012.1
20260505192402 42 308 0.0 0.0 0.00 0.00 0.00 43 1012.0
20260505191403 43 308 0.0 0.0 0.00 0.00 0.00 42 1011.9
20260505190903 43 308 0.0 0.0 0.00 0.00 0.00 40 1011.8
20260505190402 44 308 0.0 0.0 0.00 0.00 0.00 40 1011.7
20260505185903 44 308 0.0 0.0 0.00 0.00 0.00 40 1011.7
20260505185403 45 308 0.0 0.9 0.00 0.00 0.00 40 1011.7
20260505183903 46 296 0.9 2.6 0.00 0.00 0.00 36 1011.5
20260505183403 46 298 1.7 2.6 0.00 0.00 0.00 36 1011.5
20260505182903 47 293 0.9 2.6 0.00 0.00 0.00 37 1011.5
20260505182402 47 280 1.7 7.8 0.00 0.00 0.00 35 1011.4
20260505181903 47 320 0.9 2.6 0.00 0.00 0.00 36 1011.3
20260505181404 48 289 1.7 5.2 0.00 0.00 0.00 34 1011.3
20260505180903 48 294 1.7 4.3 0.00 0.00 0.00 34 1011.2
20260505180404 49 298 1.7 7.0 0.00 0.00 0.00 32 1011.2
20260505175903 49 290 1.7 4.3 0.00 0.00 0.00 31 1011.1
20260505175403 50 288 1.7 6.1 0.00 0.00 0.00 31 1011.1
20260505174403 51 310 2.6 4.3 0.00 0.00 0.00 32 1011.0
20260505173902 51 330 1.7 7.8 0.00 0.00 0.00 30 1010.9
20260505173403 51 316 2.6 7.0 0.00 0.00 0.00 32 1011.0
20260505171402 51 295 2.6 10.4 0.00 0.00 0.00 32 1011.0
20260505170902 51 272 7.0 12.2 0.00 0.00 0.00 29 1011.0
20260505170402 52 281 4.3 8.7 0.00 0.00 0.00 31 1011.0
20260505165902 52 316 4.3 7.8 0.00 0.00 0.00 30 1010.9
20260505165402 52 285 5.2 10.4 0.00 0.00 0.00 30 1010.9
20260505164903 52 273 4.3 13.9 0.00 0.00 0.00 30 1011.0
20260505164403 52 278 5.2 12.2 0.00 0.00 0.00 30 1010.9
20260505163903 52 309 1.7 11.3 0.00 0.00 0.00 30 1010.9
20260505163403 52 274 5.2 10.4 0.00 0.00 0.00 28 1011.0
20260505162903 52 272 6.1 12.2 0.00 0.00 0.00 29 1010.9
20260505162403 53 288 5.2 10.4 0.00 0.00 0.00 29 1010.9
20260505161902 53 279 2.6 7.8 0.00 0.00 0.00 31 1010.9
20260505161403 53 276 6.1 10.4 0.00 0.00 0.00 30 1011.0
20260505160904 53 309 3.5 8.7 0.00 0.00 0.00 29 1011.0
20260505152403 53 290 5.2 10.4 0.00 0.00 0.00 28 1010.9
20260505151903 54 288 4.3 8.7 0.00 0.00 0.00 30 1010.9
20260505150904 53 295 4.3 11.3 0.00 0.00 0.00 30 1010.9
20260505140403 54 270 4.3 11.3 0.00 0.00 0.00 34 1010.7
20260505124903 54 270 10.4 17.4 0.00 0.00 0.00 30 1010.9
20260505124403 53 275 5.2 13.9 0.00 0.00 0.00 33 1011.0
20260505123903 54 268 10.4 15.6 0.00 0.00 0.00 32 1011.1
20260505123403 53 251 11.3 17.4 0.00 0.00 0.00 30 1011.0
20260505122403 53 266 10.4 14.8 0.00 0.00 0.00 30 1011.2
20260505121903 53 260 10.4 17.4 0.00 0.00 0.00 32 1011.2
20260505121403 53 278 7.8 15.6 0.00 0.00 0.00 32 1011.3
20260505120903 53 266 10.4 18.2 0.00 0.00 0.00 33 1011.2
20260505120403 53 261 8.7 13.9 0.00 0.00 0.00 32 1011.2
20260505115903 53 256 9.6 15.6 0.00 0.00 0.00 33 1011.1
20260505115402 53 275 9.6 14.8 0.00 0.00 0.00 34 1011.1
20260505114904 53 228 8.7 12.2 0.00 0.00 0.00 33 1011.1
20260505114403 52 256 10.4 17.4 0.00 0.00 0.00 32 1011.1
20260505113903 52 275 11.3 17.4 0.00 0.00 0.00 34 1011.1
20260505113403 52 292 5.2 11.3 0.00 0.00 0.00 35 1011.1
20260505112903 52 293 6.1 10.4 0.00 0.00 0.00 37 1011.1
20260505111903 51 268 6.1 12.2 0.00 0.00 0.00 37 1011.2
20260505111403 52 275 6.1 13.0 0.00 0.00 0.00 36 1011.2
20260505110903 51 282 6.1 13.9 0.00 0.00 0.00 38 1011.1
20260505110403 51 271 4.3 11.3 0.00 0.00 0.00 37 1011.2
20260505101403 49 248 5.2 10.4 0.00 0.00 0.00 42 1011.3
20260505100903 49 257 8.7 12.2 0.00 0.00 0.00 41 1011.3
20260505100403 50 269 7.8 13.0 0.00 0.00 0.00 41 1011.3
20260505095403 49 299 4.3 10.4 0.00 0.00 0.00 41 1011.2
20260505094903 49 282 4.3 12.2 0.00 0.00 0.00 44 1011.3
20260505094403 48 266 7.8 13.0 0.00 0.00 0.00 40 1011.2
20260505093903 48 277 7.0 13.9 0.00 0.00 0.00 43 1011.0
20260505092903 47 264 3.5 11.3 0.00 0.00 0.00 43 1011.0
20260505092403 48 271 8.7 13.0 0.00 0.00 0.00 42 1010.9
20260505091903 48 273 6.1 12.2 0.00 0.00 0.00 45 1011.0
20260505091403 47 254 6.1 8.7 0.00 0.00 0.00 47 1010.9
20260505090903 47 260 7.8 12.2 0.00 0.00 0.00 46 1010.9
20260505090403 47 282 4.3 7.8 0.00 0.00 0.00 44 1010.9
20260505085903 47 305 4.3 10.4 0.00 0.00 0.00 48 1010.8
20260505085403 47 278 3.5 7.8 0.00 0.00 0.00 47 1010.7
20260505084904 47 284 6.1 10.4 0.00 0.00 0.00 47 1010.7
20260505084403 47 256 3.5 10.4 0.00 0.00 0.00 50 1010.7
20260505083904 46 277 3.5 10.4 0.00 0.00 0.00 48 1010.7
20260505082904 46 282 7.8 12.2 0.00 0.00 0.00 48 1010.6
20260505082404 46 273 7.8 12.2 0.00 0.00 0.00 50 1010.7
20260505081903 46 266 5.2 8.7 0.00 0.00 0.00 48 1010.7
20260505080904 46 265 5.2 10.4 0.00 0.00 0.00 52 1010.7
20260505080403 46 272 3.5 7.0 0.00 0.00 0.00 53 1010.7
20260505075404 45 285 4.3 7.8 0.00 0.00 0.00 54 1010.6
20260505074903 45 315 3.5 7.8 0.00 0.00 0.00 54 1010.6
20260505074403 45 291 2.6 7.8 0.00 0.00 0.00 55 1010.5
20260505073903 44 295 4.3 8.7 0.00 0.00 0.00 54 1010.5
20260505073403 44 271 4.3 10.4 0.00 0.00 0.00 54 1010.5
20260505072904 45 256 5.2 8.7 0.00 0.00 0.00 53 1010.4
20260505072403 45 289 3.5 7.8 0.00 0.00 0.00 55 1010.3
20260505071903 44 292 1.7 10.4 0.00 0.00 0.00 58 1010.3
20260505071403 44 268 4.3 10.4 0.00 0.00 0.00 56 1010.2
20260505070904 44 305 2.6 7.8 0.00 0.00 0.00 60 1010.2
20260505070403 44 274 6.1 11.3 0.00 0.00 0.00 56 1010.2
20260505065903 44 277 7.0 10.4 0.00 0.00 0.00 57 1010.1
20260505065403 44 272 7.0 11.3 0.00 0.00 0.00 57 1010.1
20260505064904 44 259 5.2 10.4 0.00 0.00 0.00 57 1010.1
20260505064403 43 289 2.6 10.4 0.00 0.00 0.00 60 1010.0
20260505063903 43 296 5.2 10.4 0.00 0.00 0.00 60 1010.0
20260505063403 43 277 5.2 10.4 0.00 0.00 0.00 60 1010.1
20260505062904 43 273 4.3 11.3 0.00 0.00 0.00 61 1010.0
20260505062403 43 276 3.5 7.8 0.00 0.00 0.00 61 1010.1
20260505061404 43 274 5.2 10.4 0.00 0.00 0.00 60 1010.0
20260505060904 43 300 5.2 13.0 0.00 0.00 0.00 60 1010.0
20260505060404 43 304 2.6 7.8 0.00 0.00 0.00 62 1010.0
20260505055903 43 283 2.6 7.8 0.00 0.00 0.00 63 1009.9
20260505055403 43 308 0.9 7.0 0.00 0.00 0.00 64 1009.8
20260505054904 43 300 2.6 6.1 0.00 0.00 0.00 63 1009.9
20260505054403 43 308 1.7 7.0 0.00 0.00 0.00 64 1009.8
20260505052903 42 288 3.5 7.0 0.00 0.00 0.00 64 1009.7
20260505052403 42 285 3.5 7.8 0.00 0.00 0.00 65 1009.6
20260505051904 42 293 2.6 7.8 0.00 0.00 0.00 66 1009.7
20260505051404 41 272 3.5 7.8 0.00 0.00 0.00 66 1009.6
20260505050903 41 283 2.6 8.7 0.00 0.00 0.00 68 1009.6
20260505050404 41 287 2.6 7.0 0.00 0.00 0.00 70 1009.6
20260505041404 38 272 2.6 7.0 0.00 0.00 0.00 76 1009.1
20260505040903 38 269 3.5 6.1 0.00 0.00 0.00 77 1009.0
20260505040404 38 269 3.5 6.1 0.00 0.00 0.00 78 1009.0
20260505035903 37 272 2.6 6.1 0.00 0.00 0.00 79 1009.0
20260505035404 37 278 0.9 2.6 0.00 0.00 0.00 79 1008.9
20260505034404 37 315 0.9 2.6 0.00 0.01 0.00 80 1008.8
20260505033903 37 307 0.9 4.3 0.00 0.01 0.00 81 1008.7
20260505032904 37 306 0.9 2.6 0.00 0.01 0.00 83 1008.6
20260505032404 36 303 0.9 2.6 0.00 0.01 0.00 84 1008.6
20260505031904 37 298 0.0 2.6 0.00 0.01 0.00 85 1008.5
20260505031403 37 270 0.0 2.6 0.00 0.01 0.00 86 1008.5
20260505030903 37 271 0.9 2.6 0.00 0.01 0.00 86 1008.5
20260505030404 37 301 0.0 2.6 0.00 0.01 0.00 86 1008.5
20260505025903 37 287 0.0 2.6 0.00 0.01 0.00 87 1008.4
20260505025405 38 287 0.9 2.6 0.00 0.01 0.00 87 1008.4
20260505024903 38 285 0.0 1.7 0.00 0.02 0.00 88 1008.4
20260505024404 39 277 0.9 2.6 0.00 0.02 0.00 88 1008.4
20260505023903 39 276 1.7 2.6 0.00 0.02 0.00 88 1008.3
20260505023403 39 273 2.6 6.1 0.00 0.02 0.00 88 1008.3
20260505022904 40 271 4.3 6.1 0.00 0.02 0.00 88 1008.3
20260505022403 41 262 3.5 7.0 0.00 0.02 0.00 89 1008.3
20260505021904 41 266 4.3 7.0 0.00 0.02 0.00 89 1008.3
20260505021403 42 252 6.1 8.7 0.00 0.03 0.00 90 1008.2
20260505020904 42 258 6.1 8.7 0.00 0.03 0.00 90 1008.2
20260505020403 42 248 7.8 10.4 0.00 0.03 0.00 90 1008.2
20260505015904 42 250 7.8 10.4 0.00 0.03 0.00 90 1008.1
20260505015404 42 249 7.0 10.4 0.00 0.03 0.00 90 1008.1
20260505014903 42 245 7.0 10.4 0.00 0.04 0.00 91 1008.0
20260505014404 42 242 6.1 8.7 0.00 0.04 0.00 90 1008.0
20260505013403 42 237 7.0 10.4 0.00 0.06 0.00 90 1007.9
20260505012903 42 229 7.8 10.4 0.00 0.06 0.00 91 1007.9
20260505012404 42 229 7.8 10.4 0.00 0.07 0.00 90 1007.9
20260505011903 42 227 7.8 10.4 0.00 0.07 0.00 90 1007.9
20260505011404 42 231 7.8 10.4 0.00 0.07 0.00 90 1007.9
20260505010903 42 230 7.8 12.2 0.00 0.07 0.00 90 1007.9
20260505010403 42 232 8.7 11.3 0.00 0.07 0.00 90 1007.9
20260505005903 43 230 7.8 11.3 0.00 0.07 0.00 90 1007.8
20260505004404 43 233 8.7 13.0 0.00 0.07 0.00 90 1007.7
20260505003904 43 232 8.7 11.3 0.00 0.07 0.00 90 1007.8
20260505003404 43 231 9.6 13.0 0.00 0.07 0.00 90 1007.8
20260505002903 43 231 9.6 12.2 0.00 0.07 0.00 90 1007.8
20260505002403 43 232 8.7 13.0 0.00 0.07 0.00 90 1007.7
20260505001904 43 232 8.7 14.8 0.00 0.07 0.00 90 1007.7
20260505001404 43 229 8.7 12.2 0.00 0.07 0.00 90 1007.6
20260505000405 44 232 10.4 13.0 0.00 0.07 0.00 90 1007.6
20260504235904 44 232 10.4 13.0 0.00 0.07 0.00 90 1007.5
20260504235404 44 227 11.3 13.9 0.00 0.07 0.00 90 1007.4
20260504234904 44 231 10.4 14.8 0.00 0.07 0.00 90 1007.5
20260504234404 44 232 10.4 13.9 0.00 0.07 0.00 89 1007.7
20260504233904 44 234 9.6 13.0 0.00 0.07 0.00 89 1007.7
20260504233404 44 236 11.3 13.0 0.00 0.07 0.00 89 1007.6
20260504232904 44 234 10.4 13.9 0.00 0.07 0.00 89 1007.5
20260504232405 44 233 10.4 13.9 0.00 0.07 0.00 90 1007.5
20260504231904 44 237 10.4 13.0 0.00 0.07 0.00 89 1007.5
20260504231403 44 232 9.6 12.2 0.00 0.07 0.00 89 1007.5
20260504225904 44 226 11.3 13.9 0.00 0.07 0.00 89 1007.3
20260504225404 44 228 10.4 13.9 0.00 0.07 0.00 88 1007.3
20260504224404 44 226 10.4 13.0 0.00 0.07 0.00 88 1007.3
20260504223904 44 225 11.3 13.0 0.00 0.07 0.00 88 1007.3
20260504223403 44 222 11.3 13.9 0.00 0.07 0.00 88 1007.3
20260504222903 44 224 10.4 13.9 0.00 0.07 0.00 88 1007.3
20260504222404 44 224 12.2 14.8 0.00 0.07 0.00 88 1007.3
20260504221904 44 223 11.3 15.6 0.00 0.07 0.00 87 1007.4
20260504221404 44 220 10.4 14.8 0.00 0.07 0.00 87 1007.3
20260504220904 45 223 11.3 13.9 0.00 0.07 0.00 87 1007.3
20260504215903 45 226 11.3 17.4 0.00 0.07 0.07 86 1007.3
20260504215404 45 227 12.2 14.8 0.00 0.07 0.07 86 1007.4
20260504214904 45 226 12.2 14.8 0.00 0.07 0.07 86 1007.3
20260504214404 45 225 13.9 17.4 0.00 0.07 0.07 86 1007.4
20260504213904 45 225 11.3 17.4 0.00 0.07 0.07 86 1007.4
20260504213404 45 231 11.3 17.4 0.00 0.07 0.07 86 1007.5
20260504212903 45 230 11.3 15.6 0.00 0.07 0.07 86 1007.5
20260504212404 45 229 12.2 18.2 0.00 0.07 0.07 86 1007.5
20260504211903 45 229 12.2 17.4 0.00 0.07 0.07 85 1007.5
20260504211403 45 229 12.2 17.4 0.00 0.07 0.07 85 1007.5
20260504210903 45 225 13.0 18.2 0.00 0.07 0.07 84 1007.6
20260504210404 45 226 12.2 15.6 0.00 0.07 0.07 84 1007.6
20260504205902 46 227 12.2 18.2 0.00 0.07 0.07 84 1007.6